DW6832 Weather Reports


time (UTC)temp
F
wind
direction
speed
knots
gust
knots
rain 1hr
in
rain 24hr
in
rain mn
in
humidity
%
barometer
mb
20260504190308 60 299 2.6 16.5 0.00 0.00 0.00 40 997.9
20260504185808 60 304 2.6 7.0 0.00 0.00 0.00 41 997.9
20260504185306 60 328 2.6 8.7 0.00 0.00 0.00 42 997.7
20260504184806 60 254 2.6 8.7 0.00 0.00 0.00 43 997.6
20260504184306 61 285 3.5 12.2 0.00 0.00 0.00 41 997.5
20260504183806 61 342 2.6 13.9 0.00 0.00 0.00 42 997.6
20260504183305 61 262 0.9 10.4 0.00 0.00 0.00 42 997.4
20260504182812 60 262 3.5 10.4 0.00 0.00 0.00 40 997.2
20260504182804 61 269 0.9 10.4 0.00 0.00 0.00 41 997.4
20260504182305 60 314 3.5 13.0 0.00 0.00 0.00 42 997.4
20260504181804 60 324 4.3 13.0 0.00 0.00 0.00 42 997.4
20260504181305 60 264 3.5 11.3 0.00 0.00 0.00 40 997.3
20260504180304 60 286 3.5 10.4 0.00 0.00 0.00 39 997.1
20260504175805 59 265 3.5 10.4 0.00 0.00 0.00 39 997.1
20260504175301 60 295 4.3 13.9 0.00 0.00 0.00 38 997.1
20260504174804 61 324 2.6 9.6 0.00 0.00 0.00 40 996.8
20260504174800 60 309 4.3 14.8 0.00 0.00 0.00 38 997.0
20260504174404 61 278 2.6 14.8 0.00 0.00 0.00 38 996.9
20260504173904 61 349 4.3 12.2 0.00 0.00 0.00 40 996.8
20260504172758 61 271 4.3 12.2 0.00 0.00 0.00 40 996.9
20260504172256 61 285 3.5 7.8 0.00 0.00 0.00 43 996.7
20260504171757 61 285 4.3 11.3 0.00 0.00 0.00 46 996.6
20260504171257 61 246 3.5 11.3 0.00 0.00 0.00 47 996.7
20260504170756 61 264 1.7 9.6 0.00 0.00 0.00 48 996.6
20260504170256 61 305 1.7 7.0 0.00 0.00 0.00 46 996.7
20260504160254 61 290 2.6 7.0 0.00 0.00 0.00 45 996.4
20260504150752 60 268 4.3 11.3 0.00 0.00 0.00 46 996.3
20260504150257 60 287 2.6 9.6 0.00 0.00 0.00 45 996.2
20260504150252 60 316 3.5 11.3 0.00 0.00 0.00 45 996.0
20260504141249 60 271 2.6 14.8 0.00 0.00 0.00 45 995.8
20260504140750 60 261 1.7 8.7 0.00 0.00 0.00 47 995.8
20260504140250 60 258 1.7 8.7 0.00 0.00 0.00 46 995.7
20260504130752 60 278 1.7 7.8 0.00 0.00 0.00 51 994.7
20260504130746 60 265 1.7 7.0 0.00 0.00 0.00 52 995.0
20260504130246 60 266 1.7 7.8 0.00 0.00 0.00 52 994.8
20260504120240 59 266 3.5 9.6 0.00 0.00 0.00 48 994.1
20260504110231 57 285 1.7 7.8 0.00 0.00 0.00 49 993.3
20260504100228 56 264 0.9 4.3 0.00 0.00 0.00 51 994.0
20260504081728 53 265 0.0 0.9 0.00 0.00 0.00 54 995.7
20260504081232 53 265 0.0 1.7 0.00 0.00 0.00 53 996.2
20260504081228 53 265 0.0 0.9 0.00 0.00 0.00 54 995.8
20260504080728 53 265 0.0 1.7 0.00 0.00 0.00 54 996.0
20260504080333 54 265 0.0 1.7 0.00 0.00 0.00 52 996.2
20260504070338 55 265 0.0 3.5 0.00 0.00 0.00 51 997.2
20260504070228 55 265 0.0 1.7 0.00 0.00 0.00 50 997.0
20260504060222 53 265 0.0 0.0 0.00 0.00 0.00 55 998.3
20260504050717 54 265 0.0 0.0 0.00 0.00 0.00 52 999.3
20260504050217 54 265 0.0 0.0 0.00 0.00 0.00 52 999.3
20260504045717 55 265 0.0 0.0 0.00 0.00 0.00 51 999.4
20260504045217 55 265 0.0 0.0 0.00 0.00 0.00 50 999.5
20260504044717 55 265 0.0 0.0 0.00 0.00 0.00 50 999.6
20260504044216 55 265 0.0 0.0 0.00 0.00 0.00 50 999.8
20260504043717 55 265 0.0 0.0 0.00 0.00 0.00 50 999.8
20260504043217 55 265 0.0 0.0 0.00 0.00 0.00 49 999.8
20260504042717 55 265 0.0 0.0 0.00 0.00 0.00 50 1000.0
20260504042216 55 265 0.0 0.0 0.00 0.00 0.00 49 1000.0
20260504041715 55 265 0.0 0.0 0.00 0.00 0.00 48 1000.1
20260504041215 56 265 0.0 0.0 0.00 0.00 0.00 47 1000.2
20260504040717 56 265 0.0 0.0 0.00 0.00 0.00 47 1000.3
20260504040213 56 265 0.0 0.0 0.00 0.00 0.00 46 1000.5
20260504035713 56 265 0.0 0.0 0.00 0.00 0.00 46 1000.7
20260504035213 56 265 0.0 0.0 0.00 0.00 0.00 45 1000.7
20260504034713 57 265 0.0 0.0 0.00 0.00 0.00 44 1000.8
20260504034211 57 265 0.0 0.0 0.00 0.00 0.00 44 1001.0
20260504033711 58 265 0.0 0.0 0.00 0.00 0.00 43 1001.0
20260504033211 58 265 0.0 0.0 0.00 0.00 0.00 43 1001.1
20260504032713 58 265 0.0 0.0 0.00 0.00 0.00 42 1001.2
20260504032709 58 265 0.0 0.0 0.00 0.00 0.00 43 1001.1
20260504031707 59 265 0.0 0.0 0.00 0.00 0.00 41 1001.2
20260504031206 59 265 0.0 0.0 0.00 0.00 0.00 41 1001.3
20260504030707 60 265 0.0 0.0 0.00 0.00 0.00 40 1001.3
20260504030207 60 265 0.0 0.0 0.00 0.00 0.00 39 1001.3
20260504025707 61 265 0.0 0.0 0.00 0.00 0.00 38 1001.4
20260504025206 61 265 0.0 0.0 0.00 0.00 0.00 37 1001.4
20260504024706 62 265 0.0 0.0 0.00 0.00 0.00 36 1001.3
20260504024206 62 265 0.0 0.0 0.00 0.00 0.00 36 1001.4
20260504023711 64 265 0.0 0.9 0.00 0.00 0.00 34 1001.5
20260504023706 63 265 0.0 0.0 0.00 0.00 0.00 35 1001.4
20260504023205 63 265 0.0 0.0 0.00 0.00 0.00 34 1001.5
20260504022705 63 265 0.0 0.9 0.00 0.00 0.00 34 1001.5
20260504021705 64 265 0.0 0.9 0.00 0.00 0.00 34 1001.5
20260504021204 64 265 0.0 0.9 0.00 0.00 0.00 33 1001.6
20260504020705 64 265 0.0 2.6 0.00 0.00 0.00 33 1001.5
20260504020207 65 265 0.0 2.6 0.00 0.00 0.00 32 1001.6
20260504020203 64 265 0.0 2.6 0.00 0.00 0.00 32 1001.6
20260504015203 65 265 0.0 2.6 0.00 0.00 0.00 32 1001.6
20260504014701 65 265 0.0 1.7 0.00 0.00 0.00 32 1001.6
20260504014201 65 265 0.0 1.7 0.00 0.00 0.00 32 1001.7
20260504013700 66 265 0.0 1.7 0.00 0.00 0.00 31 1001.6
20260504013201 66 265 0.9 2.6 0.00 0.00 0.00 31 1001.7
20260504012701 66 265 0.9 2.6 0.00 0.00 0.00 31 1001.8
20260504012200 67 265 0.9 4.3 0.00 0.00 0.00 31 1001.8
20260504011701 67 265 0.9 4.3 0.00 0.00 0.00 30 1001.8
20260504011202 67 265 0.9 3.5 0.00 0.00 0.00 30 1001.8
20260504010659 67 265 0.9 3.5 0.00 0.00 0.00 30 1001.8
20260504010159 67 265 0.9 2.6 0.00 0.00 0.00 30 1001.8
20260504005701 68 265 0.9 2.6 0.00 0.00 0.00 29 1001.9
20260504005656 68 265 0.9 2.6 0.00 0.00 0.00 29 1001.8
20260504004655 68 265 0.9 3.5 0.00 0.00 0.00 28 1001.9
20260504004155 68 265 0.9 3.5 0.00 0.00 0.00 28 1001.9
20260504003654 68 269 0.9 3.5 0.00 0.00 0.00 29 1002.0
20260504003154 68 269 0.9 5.2 0.00 0.00 0.00 29 1001.9
20260504002653 68 269 0.9 5.2 0.00 0.00 0.00 28 1001.9
20260504002153 69 269 2.6 8.7 0.00 0.00 0.00 28 1002.0
20260504001652 69 269 3.5 8.7 0.00 0.00 0.00 27 1002.1
20260504001152 69 266 2.6 9.6 0.00 0.00 0.00 27 1002.1
20260504000653 70 276 2.6 9.6 0.00 0.00 0.00 27 1002.0
20260504000152 70 266 1.7 5.2 0.00 0.00 0.00 27 1002.0
20260503235652 70 269 0.9 5.2 0.00 0.00 0.00 27 1002.1
20260503235152 70 303 0.9 5.2 0.00 0.00 0.00 27 1002.2
20260503234652 70 293 0.9 3.5 0.00 0.00 0.00 28 1002.1
20260503234153 70 293 1.7 6.1 0.00 0.00 0.00 28 1002.1
20260503233652 70 264 2.6 6.1 0.00 0.00 0.00 27 1002.1
20260503233152 70 265 1.7 9.6 0.00 0.00 0.00 27 1002.0
20260503232653 70 246 1.7 9.6 0.00 0.00 0.00 27 1002.2
20260503232152 70 274 2.6 7.8 0.00 0.00 0.00 27 1002.2
20260503231657 70 266 0.9 7.0 0.00 0.00 0.00 27 1002.4
20260503231652 70 245 1.7 7.8 0.00 0.00 0.00 27 1002.4
20260503230653 70 262 1.7 6.1 0.00 0.00 0.00 27 1002.4
20260503230153 70 266 0.9 6.1 0.00 0.00 0.00 27 1002.5
20260503225653 70 268 1.7 7.0 0.00 0.00 0.00 27 1002.5
20260503225153 70 264 2.6 8.7 0.00 0.00 0.00 27 1002.6
20260503224652 70 276 2.6 8.7 0.00 0.00 0.00 28 1002.6
20260503224152 70 263 1.7 7.8 0.00 0.00 0.00 27 1002.6
20260503223652 70 260 0.9 5.2 0.00 0.00 0.00 27 1002.7
20260503223153 70 270 0.9 4.3 0.00 0.00 0.00 27 1002.6
20260503222657 70 267 1.7 7.0 0.00 0.00 0.00 27 1002.7
20260503222652 70 267 1.7 7.0 0.00 0.00 0.00 28 1002.7
20260503221653 70 261 1.7 5.2 0.00 0.00 0.00 28 1002.7
20260503221157 70 266 1.7 8.7 0.00 0.00 0.00 27 1002.7
20260503221153 70 260 1.7 8.7 0.00 0.00 0.00 27 1002.7
20260503220153 70 266 1.7 7.0 0.00 0.00 0.00 26 1002.7
20260503215652 70 273 2.6 8.7 0.00 0.00 0.00 27 1002.8
20260503215152 70 269 2.6 8.7 0.00 0.00 0.00 27 1002.8
20260503214654 70 266 0.9 8.7 0.00 0.00 0.00 26 1002.9
20260503214158 69 259 0.0 0.0 0.00 0.00 0.00 27 1003.0
20260503214152 70 237 0.0 0.9 0.00 0.00 0.00 28 1003.0
20260503213653 69 269 0.0 0.0 0.00 0.00 0.00 27 1003.0
20260503212650 69 269 0.0 0.0 0.00 0.00 0.00 28 1002.9
20260503212148 70 256 0.0 0.9 0.00 0.00 0.00 29 1002.9
20260503211646 70 259 0.0 0.9 0.00 0.00 0.00 30 1003.0
20260503211147 69 266 0.0 0.9 0.00 0.00 0.00 30 1003.0
20260503210651 69 264 0.9 6.1 0.00 0.00 0.00 30 1003.1
20260503210647 69 266 0.0 4.3 0.00 0.00 0.00 30 1003.0
20260503205651 69 274 2.6 11.3 0.00 0.00 0.00 29 1003.2
20260503205647 69 278 2.6 11.3 0.00 0.00 0.00 28 1003.2
20260503204643 70 261 1.7 7.0 0.00 0.00 0.00 30 1003.2
20260503204143 70 311 1.7 7.0 0.00 0.00 0.00 31 1003.2
20260503203643 69 269 0.9 6.1 0.00 0.00 0.00 32 1003.2
20260503203143 69 269 1.7 8.7 0.00 0.00 0.00 31 1003.3
20260503202642 69 287 1.7 8.7 0.00 0.00 0.00 33 1003.3
20260503202140 69 274 1.7 7.8 0.00 0.00 0.00 31 1003.5
20260503201640 69 288 2.6 9.6 0.00 0.00 0.00 32 1003.5
20260503201140 69 274 3.5 9.6 0.00 0.00 0.00 32 1003.6
20260503200638 69 276 1.7 7.8 0.00 0.00 0.00 32 1003.6
20260503200143 69 267 0.9 5.2 0.00 0.00 0.00 33 1003.7
20260503200139 70 274 1.7 7.8 0.00 0.00 0.00 33 1003.7
20260503195137 69 0 1.7 4.3 0.00 0.00 0.00 34 1003.8
20260503194637 69 349 1.7 7.8 0.00 0.00 0.00 31 1003.9
20260503194134 69 318 1.7 7.8 0.00 0.00 0.00 31 1004.0
20260503193636 69 260 1.7 5.2 0.00 0.00 0.00 31 1004.0
20260503193132 69 311 2.6 8.7 0.00 0.00 0.00 32 1004.0
20260503192637 69 299 1.7 10.4 0.00 0.00 0.00 32 1003.9
20260503192632 69 301 1.7 8.7 0.00 0.00 0.00 32 1004.1
20260503191633 69 311 2.6 10.4 0.00 0.00 0.00 31 1004.0
20260503191132 69 264 2.6 10.4 0.00 0.00 0.00 30 1004.1
20260503190630 69 311 1.7 7.0 0.00 0.00 0.00 29 1004.1